Location: Naloco
(16.5478°S, 37.1017°E)
Time: 02:56:49
(UTC+00:00)

Cosmos 1862 - Pass Details

Date: 13 August 2020
Orbit: 537 x 557 km, 82.5° (Epoch: 23 September)

Event Time Altitude Azimuth Distance (km) Brightness Sun altitude
Rises 16:01:55 0° 169° (S) 2,730 6.6 -10.0°
Reaches altitude 10° 16:04:19 10° 157° (SSE) 1,834 5.6 -10.6°
Maximum altitude 16:07:49 28° 97° (E) 1,052 4.2 -11.4°
Drops below altitude 10° 16:11:18 10° 37° (NE) 1,826 5.7 -12.2°
Sets 16:13:41 0° 25° (NNE) 2,716 6.7 -12.8°
